This is the latest recevied weather packets stored in our database for station/object KC1TEM-13. If no packets are shown the sender has not sent any weather packets the latest 10 day(s).
| Time | Temp. | Humidity | Pressure | Rain* | Wind** | Luminosity | Snow |
|---|---|---|---|---|---|---|---|
| 1787949807 | 27.22° C | 69% | 1014.9 hPa | 0 mm | - | 73 W/m² | - |
| 1787949507 | 27.78° C | 66% | 1014.7 hPa | 0 mm | - | 56 W/m² | - |
| 1787949202 | 27.78° C | 62% | 1014.8 hPa | 0 mm | - | 54 W/m² | - |
| 1787948897 | 28.33° C | 61% | 1014.7 hPa | 0 mm | - | 98 W/m² | - |
| 1787948593 | 28.89° C | 59% | 1014.7 hPa | 0 mm | - | 132 W/m² | - |
| 1787948288 | 28.89° C | 59% | 1014.7 hPa | 0 mm | - | 212 W/m² | - |
| 1787947982 | 28.89° C | 58% | 1014.7 hPa | 0 mm | - | 101 W/m² | - |
| 1787947681 | 28.89° C | 58% | 1014.7 hPa | 0 mm | - | 94 W/m² | - |
| 1787947380 | 28.89° C | 59% | 1014.9 hPa | 0 mm | - | 99 W/m² | - |
| 1787947080 | 29.44° C | 62% | 1014.8 hPa | 0 mm | - | 116 W/m² | - |
| 1787946780 | 28.89° C | 59% | 1015 hPa | 0 mm | - | 400 W/m² | - |
| 1787946478 | 28.89° C | 60% | 1014.8 hPa | 0 mm | - | 391 W/m² | - |
| 1787946174 | 28.89° C | 63% | 1014.9 hPa | 0 mm | - | 468 W/m² | - |
| 1787945868 | 29.44° C | 62% | 1014.9 hPa | 0 mm | - | 480 W/m² | - |
| 1787945564 | 28.89° C | 59% | 1015 hPa | 0 mm | - | 522 W/m² | - |
| 1787945264 | 28.89° C | 59% | 1015.1 hPa | 0 mm | - | 451 W/m² | - |
| 1787944963 | 28.89° C | 57% | 1015.1 hPa | 0 mm | - | 537 W/m² | - |
| 1787944661 | 28.89° C | 60% | 1015.1 hPa | 0 mm | - | 564 W/m² | - |
| 1787944357 | 28.89° C | 59% | 1015.2 hPa | 0 mm | - | 552 W/m² | - |
| 1787944052 | 29.44° C | 59% | 1015.2 hPa | 0 mm | - | 567 W/m² | - |
| 1787943747 | 29.44° C | 57% | 1015.2 hPa | 0 mm | - | 487 W/m² | - |
| 1787943442 | 28.89° C | 58% | 1015.3 hPa | 0 mm | - | 619 W/m² | - |
| 1787943138 | 28.89° C | 59% | 1015.3 hPa | 0 mm | - | 617 W/m² | - |
| 1787942832 | 28.89° C | 62% | 1015.3 hPa | 0 mm | - | 635 W/m² | - |
| 1787942528 | 28.89° C | 59% | 1015.4 hPa | 0 mm | - | 646 W/m² | - |
* Rain latest hour (hover to see other rain measurements)
** Current wind speed in m/s (hover to see current wind gust speed)